[[{"header":{"parameterUnit":"m.s-1","parameterCategory":1,"la1":30.2991,"la2":30.254,"lo1":-89.0895,"lo2":-89.0444,"dy":0.0017,"dx":0.0017,"nx":28,"ny":28,"refTime":"2025-12-21T09:00:00:Z","depth":0,"parameterNumber":2,"parameterNumberName":"U-component_of_WINDS"},"data":[0,0,0,0,0,0,0,0,0,0,0,0,0,0,0,0,0,0,0,0,0,0,0,0,0,0,0,0,0,0,0,0,0,0,0,0,0,0,0,0,0,0,0,0,0,0,0,0,0,0,0,0,0,0,0,0,0,0,-4.0774,-4.0775,0,-4.0845,-4.0845,-4.0846,-4.0788,-4.0786,-4.0783,-4.0781,-4.0853,-4.0857,-4.0861,0,0,0,0,0,0,0,0,0,0,0,0,0,-4.0591,-4.0595,-4.0774,-4.0775,-4.0776,-4.0844,-4.0845,-4.0846,-4.0789,-4.0786,-4.0783,-4.078,-4.0852,-4.0857,-4.0862,0,0,0,0,0,0,0,0,0,0,0,0,0,-4.0667,-4.0596,-4.0774,-4.0755,-4.0754,-4.0844,-4.0846,-4.0847,-4.0789,-4.0786,-4.0782,-4.0779,-4.085,-4.0856,-4.0863,-4.0974,0,0,-4.0882,-4.0884,0,0,0,0,0,0,0,0,-4.0663,-4.0674,-4.0757,-4.0757,-4.0756,-4.0804,-4.0807,-4.089,-4.079,-4.0776,-4.0781,-4.0777,-4.084,-4.0847,-4.0868,-4.0978,-4.0981,-4.0882,-4.0886,-4.0889,-4.0891,0,0,0,0,0,0,0,-4.0658,-4.0671,-4.0802,-4.0758,-4.0758,-4.0744,-4.0751,-4.0823,-4.0828,-4.0777,-4.0773,-4.0782,-4.0839,-4.0862,-4.0869,-4.0982,-4.0882,-4.0888,-4.0892,-4.0894,-4.119,-4.1194,0,0,0,0,0,0,-4.0654,-4.0667,-4.08,-4.0804,-4.0699,-4.075,-4.0758,-4.0792,-4.0827,-4.0828,-4.0785,-4.0779,-4.0853,-4.0862,-4.0872,-4.1006,-4.0889,-4.0895,-4.0898,-4.1186,-4.1191,-4.1196,0,0,0,0,0,0,-4.0651,-4.0667,-4.0797,-4.0734,-4.075,-4.0757,-4.0796,-4.0795,-4.0819,-4.0833,-4.0833,-4.0808,-4.0851,-4.0863,-4.095,-4.1007,-4.0898,-4.0903,-4.1181,-4.1188,-4.1193,-4.1275,0,0,0,0,0,0,-4.0646,-4.0666,-4.0707,-4.0736,-4.0753,-4.0873,-4.08,-4.08,-4.083,-4.0822,-4.0854,-4.0856,-4.0849,-4.0941,-4.0956,-4.1014,-4.0908,-4.1176,-4.1184,-4.1191,-4.1267,-4.1283,-4.1297,0,0,0,0,0,-4.0639,-4.0727,-4.071,-4.0726,-4.0806,-4.0877,-4.0887,-4.0876,-4.0834,-4.0877,-4.0887,-4.0855,-4.1,-4.095,-4.0967,-4.1028,-4.1172,-4.1182,-4.1191,-4.126,-4.128,-4.1296,0,0,0,0,0,0,-4.0704,-4.073,-4.0711,-4.081,-4.0842,-4.0867,-4.0919,-4.0897,-4.0941,-4.0932,-4.0918,-4.0926,-4.1018,-4.1032,-4.0977,-4.1139,-4.1079,-4.1092,-4.1126,-4.1145,-4.1159,-4.1153,-4.0913,0,0,0,0,0,-4.073,-4.0785,-4.0805,-4.0891,-4.0908,-4.0912,-4.0942,-4.0932,-4.0964,-4.0976,-4.0992,-4.1025,-4.1078,-4.1112,-4.1162,-4.127,-4.1276,-4.132,-4.1335,-4.1347,-4.1358,-4.1418,-4.1438,-4.1226,-4.1226,-4.1226,0,0,-4.0783,-4.0805,-4.084,-4.0904,-4.0927,-4.0986,-4.0923,-4.0986,-4.103,-4.0986,-4.1069,-4.1083,-4.1118,-4.1217,-4.1261,-4.1232,-4.1419,-4.1359,-4.1369,-4.1373,-4.143,-4.145,-4.1467,-4.1232,-4.1231,-4.123,0,0,-4.091,-4.0932,-4.1006,-4.1032,-4.1068,-4.1071,-4.1089,-4.1119,-4.1126,-4.121,-4.1179,-4.1232,-4.1322,-4.1349,-4.1375,-4.1518,-4.1491,-4.1535,-4.1611,-4.167,-4.1687,-4.1702,-4.1753,-4.1771,-4.1546,-4.1546,-4.1547,0,-4.0972,-4.1058,-4.1047,-4.1114,-4.1144,-4.111,-4.1186,-4.1211,-4.1262,-4.1284,-4.125,-4.1365,-4.1387,-4.1492,-4.1528,-4.155,-4.1571,-4.153,-4.1685,-4.17,-4.1714,-4.1762,-4.1782,-4.1551,-4.1551,-4.155,-4.155,0,-4.1132,-4.1193,-4.1249,-4.13,-4.1337,-4.1408,-4.1409,-4.1448,-4.1436,-4.1443,-4.1531,-4.1556,-4.1611,-4.1636,-4.1624,-4.1741,-4.1721,-4.1687,-4.1626,-4.1739,-4.1785,-4.1803,-4.1559,-4.1557,-4.1555,-4.1554,0,0,-4.1297,-4.1345,-4.1366,-4.139,-4.143,-4.1477,-4.1548,-4.1602,-4.1636,-4.1674,-4.1733,-4.1814,-4.1783,-4.1813,-4.1805,-4.1857,-4.1969,-4.1816,-4.1817,-4.1844,-4.2101,-4.2125,-4.2146,-4.1953,-4.1957,-4.1959,-4.2098,0,-4.1426,-4.1549,-4.1544,-4.1659,-4.1716,-4.1686,-4.1748,-4.1781,-4.179,-4.1841,-4.1851,-4.1908,-4.1864,-4.1882,-4.1932,-4.1945,-4.2021,-4.1935,-4.2008,-4.2011,-4.1998,-4.217,-4.2195,-4.2324,-4.2115,-4.2118,-4.212,0,-4.1591,-4.1636,-4.1757,-4.1791,-4.1815,-4.1871,-4.1922,-4.197,-4.2007,-4.2011,-4.2046,-4.2031,-4.2105,-4.2044,-4.2146,-4.2088,-4.2119,-4.213,-4.2135,-4.214,-4.2071,-4.2179,-4.2365,-4.2384,-4.2148,-4.2146,-4.2144,0,-4.1699,-4.179,-4.1874,-4.1896,-4.1938,-4.1979,-4.1998,-4.2032,-4.2066,-4.2111,-4.2134,-4.2187,-4.2216,-4.2259,-4.2259,-4.2215,-4.2363,-4.2301,-4.2368,-4.2368,-4.2397,-4.2395,-4.259,-4.242,-4.242,-4.242,-4.2419,0,-4.1842,-4.1917,-4.1924,-4.1976,-4.206,-4.2055,-4.2139,-4.2155,-4.2186,-4.2241,-4.222,-4.2273,-4.2271,-4.2325,-4.2326,-4.2411,-4.2424,-4.243,-4.2429,-4.2431,-4.243,-4.2448,-4.2439,-4.2425,-4.2424,-4.2423,-4.2422,0,-4.1975,-4.1982,-4.2073,-4.2107,-4.2118,-4.2178,-4.2208,-4.2258,-4.2268,-4.2338,-4.2355,-4.237,-4.2433,-4.2438,-4.2511,-4.2512,-4.2615,-4.2605,-4.2602,-4.26,-4.2665,-4.2659,-4.2877,-4.2906,-4.2719,-4.2721,-4.2722,0,-4.2064,-4.2122,-4.2163,-4.2199,-4.2221,-4.2279,-4.2315,-4.2314,-4.2352,-4.2401,-4.2446,-4.2507,-4.2555,-4.2658,-4.2675,-4.2732,-4.2722,-4.2795,-4.273,-4.2731,-4.2723,-4.2719,-4.2725,-4.2807,-4.2809,-4.2811,-4.2812,0,-4.2222,-4.2224,-4.2276,-4.2331,-4.2374,-4.2417,-4.2457,-4.2488,-4.2492,-4.2536,-4.2601,-4.2639,-4.2715,-4.2776,-4.2832,-4.2853,-4.2834,-4.2833,-4.2851,-4.2852,-4.2848,-4.2851,-4.2635,-4.2827,-4.2826,-4.2824,-4.2824,-4.2823,-4.2336,-4.2386,-4.2424,-4.2483,-4.2514,-4.2553,-4.2603,-4.262,-4.2674,-4.2735,-4.2732,-4.2804,-4.2843,-4.2917,-4.2943,-4.2999,-4.2975,-4.3001,-4.3008,-4.3014,-4.302,-4.2842,-4.301,-4.3009,-4.3009,-4.3009,-4.3008,0,-4.2492,-4.2516,-4.2571,-4.2629,-4.2676,-4.2656,-4.2701,-4.2741,-4.2805,-4.2843,-4.2893,-4.2968,-4.3029,-4.3053,-4.3113,-4.3154,-4.3147,-4.317,-4.3166,-4.3171,-4.3039,-4.3017,-4.3175,-4.3175,-4.3175,-4.3175,-4.3174,-4.3174,-4.2579,-4.2664,-4.2671,-4.2772,-4.2796,-4.2866,-4.2893,-4.293,-4.2961,-4.3046,-4.3097,-4.3113,-4.3147,-4.3209,-4.3265,-4.327,-4.3293,-4.332,-4.3322,-4.3197,-4.318,-4.3164,-4.3143,-4.3325,-4.3325,-4.3449,-4.345,-4.3451]},{"header":{"parameterUnit":"m.s-1","parameterCategory":1,"la1":30.2991,"la2":30.254,"lo1":-89.0895,"lo2":-89.0444,"dy":0.0017,"dx":0.0017,"nx":28,"ny":28,"refTime":"2025-12-21T09:00:00:Z","depth":0,"parameterNumber":3,"parameterNumberName":"V-component_of_WINDS"},"data":[0,0,0,0,0,0,0,0,0,0,0,0,0,0,0,0,0,0,0,0,0,0,0,0,0,0,0,0,0,0,0,0,0,0,0,0,0,0,0,0,0,0,0,0,0,0,0,0,0,0,0,0,0,0,0,0,0,0,1.8724,1.8725,0,1.8808,1.8809,1.881,1.8835,1.8835,1.8834,1.8834,1.8918,1.892,1.8923,0,0,0,0,0,0,0,0,0,0,0,0,0,1.8585,1.8587,1.8724,1.8725,1.8726,1.8808,1.8809,1.881,1.8835,1.8835,1.8834,1.8834,1.8917,1.892,1.8923,0,0,0,0,0,0,0,0,0,0,0,0,0,1.8654,1.8588,1.8724,1.8748,1.8751,1.8808,1.8809,1.881,1.8835,1.8835,1.8834,1.8833,1.8916,1.8919,1.8923,1.896,0,0,1.8935,1.8937,0,0,0,0,0,0,0,0,1.865,1.8659,1.8744,1.8747,1.875,1.881,1.8791,1.8861,1.8835,1.8803,1.8834,1.8833,1.8882,1.8889,1.8906,1.8964,1.8968,1.8936,1.8938,1.894,1.8941,0,0,0,0,0,0,0,1.8646,1.8656,1.8757,1.8745,1.8749,1.8755,1.8764,1.8804,1.8845,1.8806,1.8808,1.8818,1.8884,1.8902,1.8908,1.8969,1.8936,1.8939,1.8942,1.8943,1.9065,1.9066,0,0,0,0,0,0,1.8637,1.8652,1.8754,1.8759,1.8698,1.8758,1.8768,1.8792,1.8845,1.8852,1.8818,1.8819,1.8896,1.8904,1.8911,1.896,1.894,1.8944,1.8946,1.9064,1.9065,1.9066,0,0,0,0,0,0,1.8634,1.8646,1.8751,1.8706,1.872,1.8761,1.8787,1.8794,1.8812,1.8854,1.8861,1.8829,1.8896,1.8906,1.8949,1.8963,1.8945,1.8949,1.9063,1.9065,1.9066,1.9057,0,0,0,0,0,0,1.8629,1.8644,1.8659,1.8706,1.8723,1.8787,1.8788,1.8796,1.8819,1.882,1.8867,1.8874,1.8896,1.8943,1.8953,1.8968,1.8952,1.9062,1.9064,1.9065,1.9056,1.9057,1.9059,0,0,0,0,0,1.8624,1.8651,1.8659,1.8671,1.8741,1.8788,1.8797,1.8823,1.882,1.8835,1.8863,1.8872,1.896,1.8947,1.8958,1.8975,1.9061,1.9063,1.9065,1.9055,1.9057,1.9059,0,0,0,0,0,0,1.8602,1.8658,1.8667,1.8711,1.8745,1.8792,1.8811,1.8824,1.8858,1.8858,1.8888,1.8898,1.894,1.8962,1.8946,1.9016,1.9011,1.9015,1.8999,1.9002,1.9003,1.8997,1.8955,0,0,0,0,0,1.8603,1.8637,1.8683,1.8717,1.8734,1.877,1.8791,1.8808,1.8844,1.8858,1.8889,1.8923,1.8959,1.8981,1.9016,1.9059,1.9071,1.9077,1.9078,1.9079,1.9083,1.9109,1.9113,1.9073,1.9073,1.9073,0,0,1.8604,1.8638,1.8657,1.8714,1.8742,1.8776,1.8781,1.8817,1.8843,1.8863,1.8907,1.8931,1.8971,1.9015,1.9036,1.9035,1.9097,1.9082,1.9082,1.9085,1.9112,1.9116,1.9119,1.9074,1.9074,1.9074,0,0,1.8623,1.8652,1.8685,1.8714,1.8757,1.8782,1.8789,1.8836,1.8853,1.8897,1.8914,1.8946,1.9006,1.9035,1.9057,1.9091,1.9101,1.9101,1.9109,1.9135,1.9138,1.9141,1.9154,1.9158,1.9104,1.9104,1.9104,0,1.8618,1.8671,1.8699,1.8735,1.876,1.8782,1.8816,1.8842,1.8895,1.8912,1.891,1.8988,1.9016,1.9068,1.9077,1.9094,1.9105,1.9096,1.9135,1.9138,1.9142,1.9155,1.9159,1.9104,1.9104,1.9104,1.9104,0,1.8664,1.87,1.8722,1.8774,1.8801,1.8835,1.8869,1.8894,1.8909,1.8934,1.898,1.9015,1.9059,1.9073,1.9087,1.9128,1.9126,1.9129,1.9125,1.9145,1.9158,1.9163,1.9104,1.9104,1.9104,1.9104,0,0,1.867,1.874,1.8747,1.8772,1.8823,1.8852,1.8888,1.8932,1.8953,1.8989,1.9021,1.9073,1.9077,1.9103,1.9121,1.9143,1.917,1.9145,1.9146,1.9149,1.9219,1.9216,1.9221,1.9178,1.9179,1.918,1.9216,0,1.8696,1.8763,1.8791,1.8844,1.8879,1.8902,1.8934,1.8969,1.8994,1.9027,1.9054,1.9091,1.9094,1.911,1.9133,1.9162,1.9185,1.916,1.9208,1.9209,1.9198,1.9228,1.9225,1.9257,1.9221,1.9222,1.9222,0,1.8736,1.8774,1.8831,1.8881,1.8897,1.8925,1.8969,1.9,1.9041,1.9058,1.9088,1.9106,1.9146,1.914,1.9195,1.9178,1.9199,1.9217,1.9219,1.9225,1.9217,1.9235,1.9268,1.9273,1.923,1.923,1.9229,0,1.8736,1.8802,1.8845,1.8866,1.8924,1.8944,1.8969,1.9009,1.9035,1.9074,1.9091,1.9133,1.9156,1.9188,1.9217,1.921,1.9271,1.9267,1.9286,1.9286,1.9298,1.9296,1.9335,1.9311,1.931,1.931,1.931,0,1.8763,1.8797,1.8847,1.8873,1.8913,1.8946,1.8984,1.9011,1.9048,1.908,1.9102,1.9132,1.9169,1.9204,1.9227,1.9271,1.9281,1.9295,1.9301,1.9294,1.9292,1.9308,1.9307,1.9312,1.9311,1.9311,1.9311,0,1.8769,1.8804,1.8853,1.8906,1.892,1.8947,1.8992,1.9019,1.9046,1.9087,1.9099,1.914,1.9183,1.9216,1.9271,1.9286,1.9333,1.9339,1.932,1.9323,1.9341,1.9339,1.9391,1.94,1.9369,1.9369,1.9369,0,1.8784,1.8812,1.8868,1.8893,1.8918,1.8956,1.8983,1.9017,1.9044,1.9095,1.9116,1.9161,1.9199,1.9266,1.9301,1.9344,1.9351,1.9367,1.9358,1.935,1.9353,1.9351,1.9355,1.9368,1.9368,1.9368,1.9368,0,1.8808,1.8825,1.8863,1.8909,1.8941,1.8978,1.9015,1.9034,1.9074,1.9104,1.9149,1.9178,1.9236,1.928,1.9327,1.9353,1.9368,1.9371,1.9378,1.9371,1.9359,1.9367,1.9324,1.937,1.9369,1.9369,1.9369,1.9369,1.882,1.8847,1.8891,1.8934,1.8967,1.9002,1.9031,1.9062,1.9101,1.9151,1.9169,1.9215,1.9258,1.9323,1.9349,1.9387,1.9387,1.9396,1.9399,1.9401,1.9401,1.9353,1.9395,1.9395,1.9395,1.9395,1.9395,0,1.8846,1.8877,1.8916,1.8969,1.9003,1.9016,1.9058,1.9086,1.9127,1.9166,1.9204,1.9256,1.93,1.934,1.9386,1.9408,1.9416,1.9419,1.9418,1.9424,1.9398,1.9388,1.9412,1.9412,1.9412,1.9412,1.9412,1.9412,1.8863,1.891,1.8932,1.8995,1.9025,1.9072,1.9096,1.9129,1.9161,1.9219,1.9256,1.9282,1.9322,1.9372,1.9413,1.9424,1.944,1.9441,1.9454,1.9428,1.9426,1.9424,1.9415,1.9444,1.9444,1.9477,1.9478,1.9478]}]]